TimeEDT,TemperatureF,Dew PointF,Humidity,Sea Level PressureIn,VisibilityMPH,Wind Direction,Wind SpeedMPH,Gust SpeedMPH,PrecipitationIn,Events,Conditions,WindDirDegrees,DateUTC
12:15 AM,39.2,28.4,65,29.77,10.0,West,8.1,-,N/A,,Clear,270,2013-03-14 04:15:00
12:35 AM,39.2,28.4,65,29.76,10.0,West,8.1,-,N/A,,Clear,270,2013-03-14 04:35:00
12:55 AM,39.2,28.4,65,29.77,10.0,West,9.2,-,N/A,,Clear,280,2013-03-14 04:55:00
1:15 AM,39.2,26.6,61,29.77,10.0,West,12.7,-,N/A,,Clear,280,2013-03-14 05:15:00
1:55 AM,39.2,28.4,65,29.77,10.0,WNW,11.5,-,N/A,,Clear,300,2013-03-14 05:55:00
2:15 AM,39.2,28.4,65,29.77,10.0,WNW,10.4,-,N/A,,Clear,290,2013-03-14 06:15:00
2:35 AM,39.2,26.6,61,29.77,10.0,WNW,11.5,-,N/A,,Clear,290,2013-03-14 06:35:00
2:55 AM,39.2,26.6,61,29.76,10.0,NW,10.4,-,N/A,,Clear,310,2013-03-14 06:55:00
3:15 AM,39.2,24.8,56,29.76,10.0,WNW,13.8,18.4,N/A,,Clear,300,2013-03-14 07:15:00
3:35 AM,37.4,28.4,70,29.76,10.0,WNW,11.5,-,N/A,,Clear,300,2013-03-14 07:35:00
3:55 AM,37.4,26.6,65,29.76,10.0,WNW,10.4,-,N/A,,Clear,290,2013-03-14 07:55:00
4:15 AM,37.4,26.6,65,29.75,10.0,WNW,13.8,17.3,N/A,,Mostly Cloudy,290,2013-03-14 08:15:00
4:35 AM,37.4,26.6,65,29.76,10.0,WNW,12.7,-,N/A,,Overcast,290,2013-03-14 08:35:00
4:55 AM,37.4,26.6,65,29.76,10.0,WNW,12.7,-,N/A,,Mostly Cloudy,300,2013-03-14 08:55:00
5:35 AM,37.4,28.4,70,29.76,10.0,WNW,9.2,-,N/A,,Mostly Cloudy,290,2013-03-14 09:35:00
5:55 AM,37.4,28.4,70,29.76,10.0,WNW,11.5,-,N/A,,Overcast,290,2013-03-14 09:55:00
6:15 AM,37.4,26.6,65,29.76,10.0,West,10.4,-,N/A,,Overcast,280,2013-03-14 10:15:00
6:35 AM,37.4,26.6,65,29.77,10.0,WNW,10.4,-,N/A,,Overcast,290,2013-03-14 10:35:00
6:55 AM,37.4,26.6,65,29.77,10.0,WNW,10.4,-,N/A,,Overcast,300,2013-03-14 10:55:00
7:15 AM,35.6,26.6,70,29.77,10.0,West,11.5,-,N/A,,Mostly Cloudy,280,2013-03-14 11:15:00
7:35 AM,35.6,24.8,65,29.78,10.0,West,11.5,-,N/A,,Scattered Clouds,280,2013-03-14 11:35:00
8:15 AM,35.6,24.8,65,29.78,10.0,West,11.5,18.4,N/A,,Overcast,280,2013-03-14 12:15:00
8:35 AM,35.6,23.0,60,29.78,10.0,WNW,15.0,-,N/A,,Overcast,300,2013-03-14 12:35:00
8:55 AM,35.6,21.2,56,29.78,10.0,WNW,13.8,18.4,N/A,,Overcast,290,2013-03-14 12:55:00
9:35 AM,35.6,19.4,52,29.78,10.0,WNW,13.8,19.6,N/A,,Overcast,300,2013-03-14 13:35:00
9:55 AM,35.6,21.2,56,29.78,10.0,West,12.7,-,N/A,,Overcast,280,2013-03-14 13:55:00
10:15 AM,35.6,19.4,52,29.78,10.0,WNW,12.7,-,N/A,,Overcast,290,2013-03-14 14:15:00
10:35 AM,35.6,17.6,48,29.77,10.0,WNW,11.5,18.4,N/A,,Overcast,290,2013-03-14 14:35:00
10:55 AM,35.6,19.4,52,29.77,10.0,WNW,15.0,-,N/A,,Overcast,290,2013-03-14 14:55:00
11:15 AM,35.6,17.6,48,29.77,10.0,WNW,11.5,-,N/A,,Overcast,290,2013-03-14 15:15:00
11:35 AM,35.6,17.6,48,29.76,10.0,WNW,12.7,-,N/A,,Overcast,300,2013-03-14 15:35:00
12:15 PM,35.6,17.6,48,29.75,10.0,WNW,11.5,-,N/A,,Overcast,290,2013-03-14 16:15:00
12:35 PM,37.4,19.4,48,29.74,10.0,West,10.4,17.3,N/A,,Overcast,280,2013-03-14 16:35:00
12:55 PM,37.4,17.6,45,29.74,10.0,West,13.8,-,N/A,,Overcast,260,2013-03-14 16:55:00
1:15 PM,37.4,17.6,45,29.73,10.0,WNW,12.7,17.3,N/A,,Overcast,290,2013-03-14 17:15:00
1:35 PM,37.4,17.6,45,29.72,10.0,WNW,11.5,17.3,N/A,,Overcast,290,2013-03-14 17:35:00
1:55 PM,35.6,17.6,48,29.71,10.0,WNW,10.4,-,N/A,,Overcast,290,2013-03-14 17:55:00
2:15 PM,35.6,19.4,52,29.71,10.0,WNW,11.5,18.4,N/A,,Overcast,290,2013-03-14 18:15:00
2:35 PM,35.6,17.6,48,29.70,10.0,WNW,15.0,-,N/A,,Overcast,290,2013-03-14 18:35:00
2:55 PM,35.6,17.6,48,29.70,10.0,West,17.3,21.9,N/A,,Overcast,280,2013-03-14 18:55:00
3:15 PM,35.6,15.8,44,29.70,10.0,West,15.0,20.7,N/A,,Overcast,280,2013-03-14 19:15:00
3:55 PM,35.6,15.8,44,29.70,10.0,WNW,16.1,23.0,N/A,,Overcast,290,2013-03-14 19:55:00
4:15 PM,35.6,15.8,44,29.70,10.0,WNW,20.7,26.5,N/A,,Mostly Cloudy,290,2013-03-14 20:15:00
4:35 PM,33.8,15.8,48,29.70,10.0,West,18.4,25.3,N/A,,Mostly Cloudy,270,2013-03-14 20:35:00
4:55 PM,33.8,14.0,44,29.71,10.0,WNW,18.4,25.3,N/A,,Overcast,300,2013-03-14 20:55:00
5:15 PM,33.8,15.8,48,29.71,10.0,WNW,17.3,24.2,N/A,,Overcast,290,2013-03-14 21:15:00
5:35 PM,33.8,14.0,44,29.72,10.0,West,17.3,27.6,N/A,,Overcast,280,2013-03-14 21:35:00
5:55 PM,33.8,15.8,48,29.72,10.0,West,18.4,28.8,N/A,,Overcast,280,2013-03-14 21:55:00
6:15 PM,33.8,15.8,48,29.72,10.0,WNW,21.9,25.3,N/A,,Overcast,290,2013-03-14 22:15:00
6:55 PM,32.0,14.0,48,29.74,10.0,West,20.7,27.6,N/A,,Overcast,280,2013-03-14 22:55:00
7:15 PM,32.0,14.0,48,29.75,10.0,West,19.6,27.6,N/A,,Overcast,280,2013-03-14 23:15:00
7:35 PM,30.2,14.0,51,29.75,10.0,West,21.9,31.1,N/A,,Overcast,280,2013-03-14 23:35:00
7:55 PM,30.2,14.0,51,29.76,10.0,West,25.3,29.9,N/A,,Mostly Cloudy,280,2013-03-14 23:55:00
8:15 PM,30.2,15.8,55,29.77,10.0,West,26.5,33.4,N/A,,Overcast,280,2013-03-15 00:15:00
8:35 PM,30.2,15.8,55,29.77,10.0,North,-9999.0,-,N/A,,Overcast,0,2013-03-15 00:35:00
8:55 PM,30.2,15.8,55,29.77,10.0,North,-9999.0,-,N/A,,Scattered Clouds,0,2013-03-15 00:55:00
9:15 PM,30.2,15.8,55,29.78,10.0,North,-9999.0,-,N/A,,Partly Cloudy,0,2013-03-15 01:15:00
9:55 PM,28.4,15.8,59,29.79,8.0,North,-9999.0,-,N/A,,Scattered Clouds,0,2013-03-15 01:55:00
10:15 PM,28.4,15.8,59,29.79,9.0,North,-9999.0,-,N/A,,Scattered Clouds,0,2013-03-15 02:15:00
10:35 PM,28.4,15.8,59,29.80,10.0,North,-9999.0,-,N/A,,Mostly Cloudy,0,2013-03-15 02:35:00
10:55 PM,28.4,12.2,51,29.80,10.0,North,-9999.0,-,N/A,,Overcast,0,2013-03-15 02:55:00
11:15 PM,26.6,12.2,55,29.80,10.0,North,-9999.0,-,N/A,,Mostly Cloudy,0,2013-03-15 03:15:00
11:35 PM,26.6,12.2,55,29.79,10.0,North,-9999.0,-,N/A,,Partly Cloudy,0,2013-03-15 03:35:00
11:55 PM,26.6,15.8,64,29.80,10.0,North,-9999.0,-,N/A,,Mostly Cloudy,0,2013-03-15 03:55:00